www.pogodaiklimat.ru

Погода и климат >> Архив погоды >> Франция >> Мюре-Лерм


ПОГОДА в Мюре-Лерм

  • Прогноз погоды в Мюре-Лерм
  • Монитор погоды в Мюре-Лерм

АРХИВ ПОГОДЫ в Мюре-Лерм

Время (UTC), дата Ветер
(напр.,м/с)
 
Видим.   Явления Облачность Т
(С)
Тd
(С)
f
(%)
Тe
(С)
Тes
(С)
Комфортность P
(гПа)
Po
(гПа)
Тmin
(С)
Tmax
(С)
R
(мм)
R24
(мм)
S
(см)
22 10.06 З 4
{7}
20 км слаб. дождь 10/10 1500 м
[]
+12.7 +10.4 86 +11 +11 1017.2 994.5 0.0
23 10.06 СЗ 5
{6}
18 км слаб. дождь 10/10 600 м
[]
+11.7 +10.1 90 +9 +9 1016.9 994.2 0.8
00 11.06 С 1
{7}
16 км слаб. дождь 10/10 1000 м
[]
+10.7 +9.5 92 +10 +10 1016.5 993.7 2
01 11.06 штиль 0
{2}
20 км слаб. дождь 10/10 300 м
[]
+10.1 +8.7 91 +9 +9 1015.9 993.0 0.6
02 11.06 Ю 2
{2}
8000 м слаб. дождь 10/10 300 м
[]
+10.5 +9.7 95 +9 +9 1015.3 992.5 0.4
03 11.06 Ю 2
{3}
12 км слаб. дождь 10/10 600 м
[]
+10.6 +9.8 95 +9 +9 1014.9 992.1 2
04 11.06 Ю 1
{2}
9000 м слаб. дождь 10/10 300 м
[]
+10.6 +10.0 96 +11 +11 1014.6 991.8 2
05 11.06 ЮЗ 2
{3}
14 км слаб. дождь 10/10 200 м
[]
+11.0 +10.4 96 +10 +10 1014.5 991.8 0.5
06 11.06 З 2
{4}
20 км слаб. дождь 10/10 1500 м
[]
+11.1 +10.2 94 +10 +10 1014.5 991.8 +10.1 +14.2 3
07 11.06 З 3
{4}
20 км 10/10 1000 м
[]
+11.6 +9.8 89 +10 +10 1014.7 992.0 0.0
08 11.06 З 2
{5}
20 км 10/10 300 м
[]
+11.9 +9.6 86 +11 +11 1014.7 992.0
09 11.06 З 3
{5}
19 км 10/10 300 м
[]
+12.3 +9.3 82 +11 +11 1014.8 992.1 0.0
10 11.06 ЮЗ 1
{6}
20 км 10/10 300 м
[]
+12.9 +11.1 89 +13 +13 1014.8 992.2 0.4
11 11.06 СЗ 2
{7}
20 км 10/10 300 м
[]
+13.7 +10.9 83 +13 +13 1014.5 992.0 0.0
12 11.06 З 5
{7}
20 км 10/10 600 м
[]
+15.7 +10.9 73 +15 +15 1014.0 991.6 1
13 11.06 З 5
{9}
20 км 9/9 600 м
[]
+16.2 +10.5 69 +15 +16 1013.6 991.3
14 11.06 СЗ 5
{9}
20 км 9/9 1000 м
[]
+17.2 +10.6 65 +17 +18 1013.4 991.2
15 11.06 СЗ 4
{8}
20 км 9/9 1000 м
[]
+16.1 +9.7 66 +15 +16 1013.5 991.2
16 11.06 З 8
{13}
20 км 9/9 1000 м
[]
+14.4 +7.7 64 +12 +12 1014.1 991.6
17 11.06 З 6
{13}
20 км 10/0
[]
+14.2 +8.8 70 +12 +13 1014.3 991.8 0.2
18 11.06 З 7
{12}
20 км 8/8 1500 м
[]
+12.8 +7.7 71 +10 +10 1015.0 992.4 +11.1 +17.6 0.2
19 11.06 З 6
{11}
20 км 10/0 2000 м
[]
+12.6 +8.3 75 +10 +10 1015.4 992.8
20 11.06 З 6
{9}
20 км н/о +11.3 +8.7 84 +8 +8 1015.8 993.0
21 11.06 З 4
{8}
20 км н/о +10.8 +8.4 85 +8 +8 1016.0 993.2
22 11.06 З 4
{6}
20 км н/о +9.9 +7.7 86 +7 +7 1015.9 993.0
23 11.06 З 3
{6}
20 км н/о +8.8 +6.9 88 +7 +7 1015.9 992.9
00 12.06 ЮЗ 2
{4}
20 км н/о +8.2 +6.8 91 +6 +6 1015.4 992.4
01 12.06 Ю 3
{4}
20 км н/о +7.5 +6.3 92 +4 +4 1015.0 991.9
02 12.06 ЮЗ 2
{4}
20 км н/о +6.6 +5.5 93 +4 +4 1014.6 991.5
03 12.06 ЮЗ 3
{5}
20 км н/о +6.5 +5.6 94 +4 +4 1014.5 991.4
04 12.06 Ю 2
{4}
20 км н/о +5.9 +5.2 95 +3 +3 1014.9 991.7
05 12.06 ЮЗ 3
{4}
20 км н/о +6.4 +5.8 96 +3 +3 1015.3 992.1
06 12.06 Ю 4
{5}
20 км н/о +8.8 +7.2 90 +6 +6 1015.3 992.3 +5.7 +13.6
07 12.06 ЮЗ 3
{6}
20 км н/о +11.7 +7.6 76 +10 +10 1015.2 992.5
08 12.06 ЮЗ 4
{6}
19 км н/о +14.7 +7.7 63 +14 +14 1015.1 992.6
09 12.06 З 5
{9}
20 км н/о +15.8 +7.8 59 +15 +15 1015.0 992.6
10 12.06 З 5
{9}
20 км н/о +17.2 +8.3 56 +17 +17 1014.9 992.6
11 12.06 З 4
{8}
20 км н/о +18.3 +9.1 55 +19 +19 1014.6 992.4
12 12.06 СЗ 3
{8}
20 км 8/8 1500 м
[]
+18.4 +7.5 49 +19 +22 1014.4 992.2
13 12.06 З 4
{7}
20 км 8/8 1500 м
[]
+19.6 +8.3 48 +21 +23 комфорт 1014.1 992.0
14 12.06 З 4
{7}
20 км н/о +20.4 +8.7 47 +22 +22 комфорт 1014.0 992.0
15 12.06 СЗ 3
{8}
20 км н/о +19.7 +7.4 45 +21 +21 комфорт 1014.1 992.0
16 12.06 СЗ 3
{6}
20 км н/о +19.3 +7.7 47 +20 +20 1014.0 991.9
17 12.06 С 3
{6}
20 км 9/9 1500 м
[]
+18.6 +8.8 53 +19 +20 1014.2 992.0
18 12.06 С 3
{5}
20 км н/о +18.2 +7.9 51 +19 +19 1014.5 992.3 +8.9 +20.8
19 12.06 С 2
{3}
20 км н/о +16.8 +9.2 61 +17 +17 1014.8 992.5
20 12.06 СВ 1
{2}
20 км н/о +14.1 +10.3 78 +14 +14 1015.0 992.5
21 12.06 СВ 1
{2}
20 км н/о +12.1 +9.3 83 +12 +12 1015.5 992.8
22 12.06 СЗ 1
{2}
20 км н/о +11.0 +9.4 90 +11 +11 1015.7 992.9
23 12.06 З 1
{2}
20 км н/о +10.2 +9.0 92 +10 +10 1015.4 992.6
00 13.06 З 1
{1}
20 км н/о +9.2 +8.1 93 +9 +9 1014.9 992.0
01 13.06 З 1
{2}
20 км н/о +8.3 +7.4 94 +8 +8 1014.5 991.5
02 13.06 штиль 0
{2}
15 км н/о +7.9 +7.1 95 +7 +7 1013.9 990.9
03 13.06 ЮЗ 1
{1}
13 км н/о +7.0 +6.3 95 +6 +6 1013.6 990.5
04 13.06 В 1
{2}
300 м туман ?/? +6.5 +5.9 96 +6 +6 1013.3 990.2 0.2
05 13.06 штиль 0
{2}
12 км н/о +7.5 +7.2 98 +6 +6 1013.1 990.1
06 13.06 штиль 0
{2}
20 км н/о +10.8 +10.5 98 +10 +10 1012.6 989.9 +6.4 +18.7 0.2
07 13.06 штиль 0
{2}
19 км н/о +13.9 +11.4 85 +14 +14 1012.2 989.7
08 13.06 ЮВ 5
{8}
20 км н/о +19.0 +12.3 65 +20 +20 1011.5 989.5
09 13.06 ЮВ 6
{11}
20 км 8/0
[]
+19.5 +11.3 59 +20 +24 1011.5 989.5
10 13.06 ЮВ 6
{9}
20 км н/о +21.8 +13.7 60 +25 +25 комфорт 1011.2 989.4
11 13.06 ЮВ 5
{9}
20 км н/о +23.1 +14.9 60 +27 +27 душно 1011.0 989.3
12 13.06 ЮВ 6
{11}
20 км н/о +24.5 +14.9 55 +27 +27 жарко 1010.4 988.8
13 13.06 В 6
{10}
20 км н/о +25.6 +14.7 51 +28 +28 жарко 1009.9 988.4
14 13.06 ЮВ 6
{12}
20 км н/о +25.0 +12.9 47 +27 +27 жарко 1009.8 988.2
15 13.06 ЮВ 7
{11}
19 км н/о +25.3 +12.5 45 +27 +27 жарко 1009.2 987.7
16 13.06 В 6
{13}
17 км н/о +24.3 +10.9 43 +26 +26 жарко 1009.3 987.7
17 13.06 ЮВ 7
{13}
20 км н/о +22.7 +9.8 44 +24 +24 комфорт 1009.4 987.7
18 13.06 ЮВ 6
{11}
20 км н/о +21.0 +8.6 45 +22 +22 комфорт 1009.8 987.9 +10.8 +25.6
19 13.06 В 5
{11}
20 км н/о +19.1 +7.5 47 +20 +20 1010.3 988.3
20 13.06 ЮВ 6
{11}
20 км н/о +18.0 +7.4 50 +17 +17 1010.4 988.3
21 13.06 ЮВ 5
{10}
20 км н/о +17.1 +8.0 55 +16 +16 1010.6 988.4
22 13.06 ЮВ 4
{9}
20 км н/о +15.9 +8.9 63 +15 +15 1011.2 988.9
23 13.06 Ю 2
{6}
20 км 9/0
[]
+14.6 +10.0 74 +14 +14 1012.4 990.0
00 14.06 ЮЗ 2
{4}
20 км н/о +13.1 +10.1 82 +12 +12 1013.1 990.6
01 14.06 З 5
{8}
20 км 10/10 300 м
[]
+15.0 +12.1 83 +14 +14 1013.4 991.0
02 14.06 З 2
{6}
20 км 10/10 300 м
[]
+14.8 +11.6 81 +15 +15 1013.5 991.1
03 14.06 З 4
{7}
20 км 10/10 300 м
[]
+14.5 +11.6 83 +13 +13 1013.7 991.3
04 14.06 З 3
{5}
18 км 10/10 300 м
[]
+14.2 +11.9 86 +13 +13 1013.5 991.0
05 14.06 ЮЗ 1
{4}
20 км 10/10 300 м
[]
+14.2 +11.9 86 +14 +14 1013.6 991.1
06 14.06 З 3
{5}
20 км 10/10 300 м
[]
+14.3 +11.6 84 +14 +14 1013.4 991.0 +13.1 +21.0
07 14.06 З 2
{3}
20 км 10/10 300 м
[]
+14.8 +11.4 80 +15 +15 1014.4 992.0
08 14.06 СЗ 2
{3}
20 км 10/10 600 м
[]
+15.7 +11.7 77 +16 +16 1013.1 990.8
09 14.06 С 1
{4}
19 км 10/10 300 м
[]
+16.7 +12.0 74 +18 +18 1013.2 990.9
10 14.06 СВ 2
{3}
20 км 10/10 300 м
[]
+17.7 +12.6 72 +18 +18 1013.0 990.8
11 14.06 С 3
{5}
20 км 10/10 600 м
[]
+18.1 +13.4 74 +19 +19 1012.1 990.0
12 14.06 С 1
{5}
20 км 10/10 600 м
[]
+17.9 +13.4 75 +19 +19 1011.5 989.4
13 14.06 С 2
{5}
19 км н/о +19.3 +13.7 70 +21 +21 комфорт 1011.2 989.2 0.0
14 14.06 СЗ 6
{9}
20 км 10/10 600 м
[]
+18.7 +13.5 72 +19 +19 1012.0 989.9
15 14.06 З 5
{8}
10 км дождь 10/10 300 м
[]
+15.9 +13.9 88 +15 +15 1013.6 991.3 0.6
16 14.06 В 3
{6}
9000 м слаб. дождь 10/10 1500 м
[]
+15.3 +14.2 93 +15 +15 1011.2 988.9 3
17 14.06 ЮЗ 2
{13}
20 км н/о +17.1 +14.2 83 +17 +17 1012.6 990.4 0.2
18 14.06 СЗ 3
{4}
20 км 10/10 300 м
[]
+16.6 +14.2 86 +16 +16 1013.0 990.8 +14.3 +19.7 3
19 14.06 СЗ 3
{4}
20 км 10/10 300 м
[]
+16.1 +13.2 83 +16 +16 1013.7 991.4
20 14.06 З 2
{4}
20 км 10/10 600 м
[]
+15.8 +13.5 86 +16 +16 1014.7 992.4
21 14.06 ЮЗ 2
{3}
19 км 10/10 600 м
[]
+15.5 +13.9 90 +16 +16 1015.5 993.1
22 14.06 ЮЗ 2
{3}
20 км 10/10 600 м
[]
+15.2 +13.6 90 +15 +15 1015.9 993.5
23 14.06 З 1
{3}
20 км 10/10 600 м
[]
+14.9 +13.4 91 +15 +15 1016.4 993.9
00 15.06 ЮЗ 1
{2}
15 км 10/10 600 м
[]
+14.8 +13.7 93 +15 +15 1016.1 993.6
01 15.06 З 2
{3}
20 км 10/10 600 м
[]
+15.0 +13.4 90 +15 +15 1017.0 994.5
02 15.06 ЮЗ 1
{4}
7000 м слаб. дождь 10/10 600 м
[]
+14.8 +13.7 93 +16 +16 1016.7 994.2 1
03 15.06 З 2
{3}
10 км 10/10 300 м
[]
+14.6 +13.8 95 +14 +14 1017.0 994.5 1
04 15.06 З 3
{4}
8000 м 10/10 200 м
[]
+14.7 +13.9 95 +14 +14 1017.2 994.7 0.0
05 15.06 З 4
{6}
13 км 10/10 200 м
[]
+14.4 +13.4 94 +13 +13 1017.7 995.2
06 15.06 СЗ 4
{5}
18 км 10/10 200 м
[]
+14.2 +13.1 93 +13 +13 1017.8 995.3 +14.1 +16.5 0.0
07 15.06 СЗ 4
{7}
19 км 10/10 200 м
[]
+14.1 +12.8 92 +13 +13 1018.9 996.3
08 15.06 СЗ 5
{8}
20 км 10/10 300 м
[]
+13.8 +11.8 88 +12 +12 1019.7 997.1
09 15.06 СЗ 4
{7}
20 км 10/10 300 м
[]
+14.4 +11.4 82 +13 +13 1020.3 997.7
10 15.06 З 5
{8}
20 км 10/10 300 м
[]
+14.7 +11.8 83 +13 +13 1020.7 998.1
11 15.06 СЗ 5
{8}
20 км 10/10 300 м
[]
+15.4 +11.8 79 +14 +14 1021.1 998.6
12 15.06 С 3
{7}
20 км 10/10 300 м
[]
+15.4 +11.8 79 +15 +15 1021.4 998.9
13 15.06 СЗ 4
{6}
20 км 10/10 600 м
[]
+17.1 +11.8 71 +17 +17 1021.1 998.7
14 15.06 СЗ 4
{6}
20 км 10/10 600 м
[]
+18.7 +12.2 66 +19 +19 1021.1 998.8
15 15.06 СЗ 5
{8}
20 км 10/10 1000 м
[]
+18.5 +11.6 64 +19 +19 1021.3 999.0
16 15.06 СЗ 4
{7}
20 км 10/10 1000 м
[]
+18.5 +11.8 65 +19 +19 1021.5 999.2
17 15.06 З 4
{6}
20 км 10/10 600 м
[]
+18.1 +11.6 66 +18 +18 1021.8 999.5
18 15.06 З 3
{5}
20 км 10/10 600 м
[]
+17.6 +11.8 69 +18 +18 1022.1 999.7 +13.7 +18.8
19 15.06 З 2
{4}
20 км 10/10 1500 м
[]
+17.2 +12.7 75 +18 +18 1022.3 999.9
20 15.06 ЮЗ 2
{3}
18 км 10/0
[]
+14.8 +11.9 83 +15 +15 1022.9 1000.3
21 15.06 ЮЗ 2
{3}
20 км 10/0 2000 м
[]
+14.1 +12.1 88 +14 +14 1023.4 1000.7
22 15.06 ЮЗ 2
{3}
20 км 10/0 2000 м
[]
+13.4 +11.8 90 +13 +13 1023.5 1000.8
23 15.06 ЮЗ 2
{3}
20 км н/о +11.8 +10.5 92 +11 +11 1023.5 1000.6
00 16.06 Ю 1
{3}
19 км н/о +11.6 +10.8 95 +11 +11 1023.3 1000.4
01 16.06 Ю 2
{2}
14 км н/о +10.2 +9.3 94 +9 +9 1023.2 1000.2
02 16.06 ЮЗ 1
{2}
2400 м дымка н/о +9.9 +9.3 96 +9 +9 1023.1 1000.1
03 16.06 ЮЗ 2
{3}
2100 м дымка ?/? +9.8 +9.3 97 +8 +8 1022.7 999.7
04 16.06 Ю 2
{3}
6000 м н/о +8.9 +8.4 97 +7 +7 1023.0 999.9
05 16.06 ЮЗ 2
{3}
6000 м н/о +9.6 +9.3 98 +8 +8 1023.2 1000.1
06 16.06 Ю 2
{2}
12 км н/о +11.7 +11.4 98 +11 +11 1023.1 1000.2 +8.6 +17.6
07 16.06 Ю 2
{3}
19 км н/о +14.3 +12.8 91 +14 +14 1023.1 1000.4
08 16.06 Ю 1
{3}
20 км н/о +17.3 +12.8 75 +18 +18 1022.7 1000.3
09 16.06 В 1
{4}
18 км н/о +20.1 +14.0 68 +23 +23 комфорт 1022.3 1000.1
10 16.06 СВ 2
{5}
20 км н/о +20.7 +13.2 62 +24 +24 комфорт 1021.8 999.7
11 16.06 В 3
{5}
20 км н/о +21.5 +11.8 54 +24 +24 комфорт 1021.3 999.2
12 16.06 СВ 2
{5}
19 км н/о +22.3 +12.5 54 +25 +25 комфорт 1020.6 998.6
13 16.06 С 2
{6}
19 км н/о +23.5 +11.5 47 +25 +25 комфорт 1019.8 997.9
14 16.06 С 2
{6}
20 км н/о +24.2 +11.5 45 +26 +26 жарко 1019.2 997.4
15 16.06 С 2
{5}
19 км н/о +24.7 +11.6 44 +26 +26 жарко 1018.6 996.8
16 16.06 С 2
{5}
20 км н/о +25.1 +10.5 40 +26 +26 жарко 1018.1 996.3
17 16.06 СВ 2
{5}
20 км н/о +24.8 +11.0 42 +26 +26 жарко 1017.9 996.1
18 16.06 С 3
{5}
20 км н/о +24.5 +11.4 44 +26 +26 жарко 1017.9 996.1 +11.8 +25.5
19 16.06 С 2
{3}
20 км н/о +21.9 +11.3 51 +24 +24 комфорт 1018.2 996.2
20 16.06 С 2
{3}
20 км н/о +19.0 +11.1 60 +21 +21 комфорт 1018.5 996.3
21 16.06 СЗ 1
{2}
20 км н/о +16.6 +12.1 75 +18 +18 1018.9 996.5
22 16.06 штиль 0
{2}
20 км н/о +14.7 +11.7 82 +14 +14 1019.1 996.6
23 16.06 ЮЗ 2
{3}
19 км н/о +13.2 +11.1 87 +13 +13 1018.9 996.2
00 17.06 Ю 2
{2}
20 км н/о +12.7 +11.3 91 +12 +12 1018.6 995.9
01 17.06 Ю 2
{3}
19 км н/о +12.4 +11.3 93 +12 +12 1018.5 995.8
02 17.06 Ю 2
{3}
18 км н/о +11.4 +10.3 93 +10 +10 1018.2 995.4
03 17.06 Ю 2
{3}
17 км н/о +11.1 +10.3 95 +10 +10 1018.0 995.2
04 17.06 Ю 1
{4}
12 км н/о +10.5 +9.7 95 +10 +10 1018.3 995.4 0.2
05 17.06 ЮЗ 2
{3}
17 км н/о +10.9 +10.4 97 +9 +9 1018.4 995.6
06 17.06 Ю 3
{3}
15 км н/о +13.5 +12.7 95 +12 +12 1018.5 995.9 +10.2 +24.4 0.2
07 17.06 Ю 2
{3}
20 км н/о +17.1 +14.0 82 +18 +18 1018.3 996.0
08 17.06 Ю 1
{2}
17 км н/о +21.5 +14.4 64 +24 +24 комфорт 1017.4 995.4
09 17.06 З 1
{2}
20 км н/о +23.8 +11.1 45 +25 +25 комфорт 1016.9 995.1
10 17.06 В 1
{3}
17 км н/о +25.7 +10.7 39 +27 +27 жарко 1016.7 995.0
11 17.06 СВ 2
{4}
17 км н/о +26.5 +9.8 35 +27 +27 жарко 1016.2 994.6
12 17.06 С 2
{5}
20 км н/о +27.2 +8.1 30 +27 +27 жарко 1015.6 994.0
13 17.06 В 1
{4}
20 км н/о +28.7 +10.8 33 +29 +29 жарко 1014.7 993.3
14 17.06 В 3
{6}
20 км н/о +29.2 +11.3 33 +30 +30 жарко 1014.2 992.8
15 17.06 СВ 3
{6}
19 км н/о +29.8 +9.8 29 +30 +30 жарко 1013.4 992.1
16 17.06 В 2
{6}
20 км н/о +30.2 +11.7 32 +31 +31 жарко 1012.8 991.5
17 17.06 В 2
{5}
17 км н/о +29.7 +11.2 32 +30 +30 жарко 1012.5 991.2
18 17.06 ЮВ 2
{4}
20 км н/о +28.5 +12.4 37 +30 +30 жарко 1012.7 991.3 +13.5 +30.3
19 17.06 В 1
{4}
15 км н/о +25.5 +12.7 45 +27 +27 жарко 1012.9 991.3
20 17.06 штиль 0
{1}
18 км н/о +21.6 +13.5 60 +24 +24 комфорт 1013.2 991.3

 

Местоположение метеостанции Мюре-Лерм (Франция): широта 43.45 долгота 1.26 высота над уровнем моря 190 м.

В архиве по умолчанию представлена погода в Мюре-Лерм за последнюю неделю. Архивные данные за месяц целиком и за предыдущие месяцы, начиная с января 2011 года, Вы можете получить, выбрав интересующий диапазон дат из раскрывающегося списка и нажав кнопку "Ввод!".


*Определитесь, кто Вы:
робот инопланетянин человек

Внимание! Время в таблицах - всемирное. Для получения местного времени необходимо прибавить поправку, которая равна 1 ч.

Смотрите также архив погоды в соседних городах и на ближайших метеорологических станциях:

Погода в Тулуза аэропорту (Франция) (13 км)
Погода в Тулузе (Франция) (22 км)
Погода в Сен-Жироне (Франция) (52 км)
Погода в Оше (Франция) (59 км)
Погода в Монтобане (Франция) (65 км)
Погода в Альби (Франция) (87 км)
Погода в Артьесе (Испания) (89 км)
Погода в Каркассоне (Франция) (89 км)
Погода в Ажане (Франция) (97 км)
Погода в Тарбе (Франция) (106 км)

Пояснения к столбцам:

Ветер - указаны скорость ветра в м/с - средняя за 10 мин, порывы в срок и между сроками (в фигурных скобках) и направление, откуда дует ветер: С - северный, СВ - северо-восточный, В - восточный, ЮВ - юго-восточный, Ю - южный, ЮЗ - юго-западный, З - западный, СЗ - северо-западный.
Видимость - горизонтальная дальность видимости в метрах или километрах. При видимости от 1 до 10 км при отсутствии осадков обычно наблюдается дымка, при ухудшении видимости до 1 км и менее - туман. В сухую погоду видимость может ухудшаться дымом, пылью или мглою.
Явления - указаны атмосферные явления, наблюдавшиеся в срок или в последний час перед сроком; фигурными скобками обозначены явления, наблюдавшиеся между сроками (за 1-3 часа до срока); квадратными скобками обозначены град или гололедные отложения с указанием их диаметра в мм.
Облачность - указаны через наклонную черту общая и нижняя облачность в баллах и высота нижней границы облаков в метрах; квадратными скобками обозначены формы облаков: Ci - перистые, Cs - перисто-слоистые, Cc - перисто-кучевые, Ac - высококучевые, As - высокослоистые, Sc - слоисто-кучевые, Ns - слоисто-дождевые, Cu - кучевые, Cb - кучево-дождевые. Подробнее классификацию облаков см. в Атласе облаков (PDF).
T - Температура воздуха - температура, измеренная на высоте 2 м над землей.
Td - Температура точки росы - температура, при понижении до которой содержащийся в воздухе водяной пар достигнет насыщения.
f - Относительная влажность воздуха - влажноcть воздуха, измеренная на высоте 2 м над землей.
Te - Эффективная температура - температура, которую ощущает одетый по сезону человек в тени. Характеристика душности погоды. При расчете учитывается влияние влажности воздуха и скорости ветра на теплоощущения человека.
Tes - Эффективная температура на солнце - температура, которую ощущает человек, с поправкой на солнечный нагрев. Характеристика знойности погоды. Зависит от высоты солнца над горизонтом, облачности и скорости ветра. Ночью, в пасмурную погоду, а также при ветре 12 м/с и более поправка равна нулю.
P - Атмосферное давление - приведенное к уровню моря атмосферное давление.
Po - Атмосферное давление - измеренное на уровне метеостанции атмосферное давление.
Tmin - Минимальная температура - минимум температуры воздуха на высоте 2 м над землей.
Tmax - Максимальная температура - максимум температуры воздуха на высоте 2 м над землей.
R - Количество осадков - Количество выпавших осадков за период времени, мм. При наведении курсора мыши на число - период времени, за который выпало указанное количество осадков.
R24 - Количество осадков - Количество выпавших осадков за 24 часа, мм.
S - Снежный покров - Высота снежного покрова, см. При наведении курсора мыши на число - состояние снежного покрова и степень покрытия местности в баллах.